Wind_Speed
24 27 27 26 27 25 26 26 26 26 24 23 23 24 25 25 25 25 25 24 23 22 21 21 22 22 22 22 23 23 23 22 22 21 20 20 20 20 19 19 19 19 19 17 16 17 17 18 18 18 18 17 17 16 17 16 17 17 17 17 18 19 20 20 21 23 23 22 22 21 22 23 22 21 21 20 20 19 19 20 20 19 18 19 19
26 28 26 26 27 26 27 26 27 26 24 23 23 24 25 24 24 25 25 23 22 21 20 21 22 21 21 22 23 22 21 21 20 19 19 19 20 19 19 19 18 17 17 16 15 15 17 17 17 17 17 16 15 15 15 15 15 16 16 16 17 19 20 21 23 24 23 22 23 21 23 25 23 22 21 20 20 19 18 19 20 20 20 19 20
31 28 26 27 26 27 27 27 27 26 24 23 23 24 24 24 23 24 24 23 22 20 20 20 21 21 20 21 21 21 20 19 18 18 18 19 19 19 19 18 17 15 15 15 14 14 15 16 16 16 16 16 15 14 14 13 15 15 15 15 16 18 19 22 23 23 23 24 24 22 23 24 23 21 20 20 19 19 18 18 20 21 20 20 20
32 29 27 26 26 27 27 27 27 26 25 23 23 24 24 24 23 24 23 22 21 20 20 20 19 20 20 20 20 19 18 18 18 18 18 18 18 18 18 17 15 15 15 15 14 15 14 14 15 15 15 15 14 13 12 13 15 16 16 15 15 15 17 21 21 21 24 25 23 24 24 22 22 21 20 20 19 19 19 18 18 20 20 20 19
33 30 28 26 27 27 27 27 26 26 24 23 23 23 23 23 22 23 23 22 20 20 20 19 19 19 19 18 18 17 17 18 18 18 19 17 17 18 17 16 15 15 15 14 14 14 13 13 13 14 14 14 13 12 11 14 16 16 16 14 13 14 15 18 19 19 18 21 21 23 23 21 22 21 19 19 19 18 17 17 17 17 19 20 19
33 31 28 27 27 27 27 26 26 26 24 23 22 23 23 22 22 22 22 21 19 19 19 18 18 18 18 17 17 16 16 17 18 18 18 16 17 17 16 16 15 14 14 13 14 13 13 13 12 13 12 12 12 10 12 15 16 15 14 13 13 13 13 14 15 14 9 14 18 21 22 21 21 20 18 18 18 17 17 17 16 16 17 18 18
34 32 28 27 27 27 26 26 25 25 24 23 22 22 23 22 22 21 21 19 18 19 18 17 17 17 17 16 16 15 15 15 17 18 17 16 16 16 15 15 14 13 13 13 13 13 12 13 12 12 12 12 11 10 15 17 15 14 13 13 12 12 12 10 9 6 4 10 16 18 20 20 20 19 19 17 17 17 17 17 16 16 15 16 17
32 30 29 27 26 27 26 25 25 25 25 23 22 22 23 22 21 21 20 18 18 18 17 17 17 17 16 16 16 15 15 14 16 18 17 16 16 16 15 14 13 13 13 13 13 12 12 12 12 12 12 11 9 11 16 16 15 14 13 12 11 11 10 9 8 7 7 13 17 17 19 20 19 18 18 17 16 17 17 17 17 17 16 16 16
29 29 29 28 26 26 25 25 25 24 25 24 23 22 23 22 21 20 20 18 17 17 16 17 16 16 16 15 15 15 15 15 15 16 17 17 16 16 15 14 13 13 13 13 12 12 11 10 11 12 12 10 8 12 16 16 15 13 12 11 10 10 10 11 12 14 18 20 18 17 18 19 18 16 16 16 17 17 17 17 17 17 17 17 17
27 28 28 28 26 25 24 25 25 24 24 24 24 23 23 22 21 21 20 18 16 16 17 16 16 16 15 15 15 15 15 16 16 15 16 16 16 15 15 14 13 13 13 13 12 11 10 9 11 11 9 8 8 12 15 16 15 12 11 11 11 11 12 15 17 21 23 20 17 16 17 18 18 16 15 17 18 18 18 18 18 17 17 18 18
26 28 27 27 26 24 24 24 24 24 24 25 25 24 24 23 22 21 21 18 16 16 17 17 16 15 15 14 14 15 16 16 16 15 14 14 15 14 14 13 13 13 12 12 12 11 9 10 10 9 7 8 9 12 15 14 13 12 11 11 12 13 15 18 19 21 20 17 16 16 18 19 18 15 15 17 18 18 17 17 17 18 17 17 17
25 27 27 26 25 24 24 24 24 23 23 25 25 25 25 23 22 22 21 18 17 17 17 16 15 15 15 14 14 15 15 15 16 15 14 13 13 13 13 12 12 11 11 11 10 9 9 9 8 7 7 9 11 12 13 13 12 11 11 12 13 14 17 18 18 20 18 15 15 16 18 19 17 15 14 16 17 16 16 16 17 17 17 17 17
25 26 27 27 25 24 24 24 23 23 23 24 25 26 25 24 23 22 21 18 17 17 17 16 15 15 15 14 14 14 14 15 16 15 14 14 13 13 12 12 11 10 10 10 9 8 7 7 6 7 8 9 11 12 12 12 11 11 11 12 13 14 15 16 17 19 17 15 16 16 17 18 16 15 14 15 16 15 15 16 16 16 17 17 17
26 27 28 27 25 25 24 24 23 23 24 25 26 26 25 24 23 22 20 18 18 17 17 16 15 14 13 13 14 13 13 14 15 15 15 14 14 14 13 12 11 10 9 10 9 8 6 6 7 7 7 8 9 11 12 11 11 11 11 11 12 12 15 16 18 18 16 15 15 15 16 17 15 14 13 14 15 15 15 15 15 16 16 16 16
27 28 28 27 26 25 24 24 24 24 25 26 27 27 25 24 23 22 20 19 18 18 17 15 14 13 12 12 13 13 13 14 14 14 14 13 13 14 13 13 12 11 10 10 10 9 7 6 6 7 7 7 8 9 11 11 11 11 10 11 12 12 15 16 18 17 17 15 14 15 16 16 14 14 14 14 14 14 14 15 15 15 15 15 15
27 28 28 27 26 25 25 25 24 25 26 27 27 27 26 24 23 22 20 19 19 18 16 15 13 13 12 12 13 13 13 14 14 14 13 13 13 13 12 12 11 10 9 10 10 9 7 7 6 6 6 6 6 7 9 11 11 10 9 11 13 13 16 15 18 17 16 14 15 15 15 15 13 14 14 14 13 12 13 14 14 14 14 14 14
27 28 28 27 26 26 26 25 25 26 26 27 27 27 26 24 23 21 20 20 19 17 16 14 13 13 13 13 13 14 14 14 14 14 14 13 13 12 11 10 9 9 9 9 9 7 6 7 6 5 5 5 5 6 8 10 10 9 9 12 13 14 16 16 19 16 15 15 15 15 15 14 13 14 14 13 12 11 13 13 13 13 13 13 14
26 27 27 27 26 25 26 26 26 27 27 27 27 26 25 24 22 21 21 20 18 17 15 14 13 14 14 13 14 14 14 14 15 15 15 14 13 11 10 9 8 8 7 7 7 6 5 5 5 4 5 4 5 6 7 10 10 9 11 13 14 15 16 18 19 15 14 14 14 14 14 14 13 14 13 13 12 11 11 12 13 13 13 13 13
24 25 26 26 25 25 26 26 26 27 27 26 26 24 23 23 22 21 20 19 18 16 15 14 14 14 14 14 14 14 15 15 16 16 15 14 13 11 9 8 7 7 6 5 5 5 3 3 3 3 4 5 6 6 6 10 11 10 11 12 12 13 12 15 16 14 13 13 13 13 12 12 13 14 13 12 12 11 10 11 13 12 12 12 12
22 23 24 24 25 25 25 26 26 26 26 26 24 23 22 22 21 20 19 18 17 16 15 15 15 13 13 14 14 14 15 15 15 15 15 14 12 10 9 7 6 5 5 5 5 4 3 2 2 2 3 4 6 6 6 9 11 11 11 11 12 12 10 14 14 13 12 12 12 11 11 12 13 14 13 11 11 10 9 11 12 12 11 11 11
20 21 22 23 24 24 25 25 25 25 25 24 23 22 21 21 21 19 18 17 17 16 15 15 14 13 13 14 14 14 14 14 14 14 14 13 12 9 8 7 5 5 5 5 5 4 4 3 3 2 3 4 6 6 7 9 11 11 11 11 12 13 13 16 13 12 12 11 11 11 11 12 14 14 12 10 10 10 9 10 10 11 11 10 10
19 20 20 22 23 24 25 25 24 24 24 24 23 22 21 21 20 19 18 17 16 15 15 15 14 15 15 14 14 14 13 13 13 13 13 13 11 8 7 7 6 5 4 4 5 5 4 4 3 2 3 5 7 7 7 9 10 11 10 10 12 12 14 16 13 12 11 11 11 11 12 13 14 13 11 10 10 9 9 8 9 10 10 10 10
18 20 20 21 23 24 25 25 24 24 23 23 23 22 21 21 20 19 19 18 17 16 16 16 16 16 16 15 15 14 13 12 11 11 12 12 10 8 7 6 6 5 4 4 5 5 4 3 3 2 3 6 8 8 8 9 9 9 8 9 13 12 14 13 11 10 10 10 10 10 12 13 13 12 10 11 10 9 8 8 8 9 9 9 10
19 20 20 21 22 24 25 24 24 24 23 22 22 22 21 21 20 19 19 18 17 16 16 16 17 17 16 16 15 15 14 13 12 11 11 10 9 8 7 6 5 4 3 3 4 4 4 4 3 3 4 8 10 9 9 8 7 7 6 8 11 10 11 11 10 10 10 10 9 10 11 12 12 11 10 9 8 8 8 7 7 8 9 10 11
20 20 20 20 22 24 24 23 24 24 22 21 22 22 20 20 20 19 19 18 17 17 17 16 17 17 16 15 14 15 15 15 13 11 10 9 8 7 7 6 4 3 3 3 4 5 5 4 5 5 6 9 9 7 6 6 6 6 7 8 7 7 9 10 9 9 10 9 9 10 10 11 11 11 11 8 7 8 7 6 7 7 10 11 11
20 21 21 21 21 23 23 23 23 23 23 21 21 21 19 19 20 20 20 18 17 17 17 17 17 16 15 14 13 14 14 13 11 10 9 9 8 7 6 5 4 3 3 3 4 5 5 5 5 5 5 4 4 3 2 4 6 6 6 4 4 8 10 9 7 7 8 8 9 10 10 11 11 11 11 9 8 8 7 6 7 7 8 10 10
21 22 22 22 21 23 24 23 23 23 23 21 21 21 19 19 20 20 20 19 17 17 17 17 16 14 13 12 13 13 11 10 9 9 9 8 8 8 6 5 4 3 2 2 1 2 3 3 3 2 2 1 3 4 5 6 7 5 6 4 6 11 11 9 7 7 7 7 9 10 11 12 12 11 11 10 8 8 7 7 7 6 6 7 9
21 20 22 22 22 23 23 23 23 22 23 21 19 21 18 17 18 19 19 17 17 16 16 15 14 13 11 11 12 10 9 9 9 8 9 9 10 10 8 7 6 4 3 2 2 2 1 2 2 2 3 4 6 7 5 10 7 5 9 7 9 12 11 10 9 8 7 7 9 10 11 13 12 11 10 10 9 8 8 7 7 5 4 6 7
20 20 22 23 22 22 22 23 22 20 21 18 15 19 16 14 17 18 17 15 15 15 14 13 13 12 10 10 10 8 7 9 9 9 11 11 11 11 10 9 8 8 6 4 4 3 4 4 4 4 5 5 6 7 7 13 7 4 8 7 11 13 12 12 10 9 8 8 10 11 12 12 13 12 9 9 9 8 7 7 7 6 5 5 6
20 22 22 23 22 22 22 21 21 19 17 13 14 17 15 16 18 18 17 16 16 14 13 13 12 11 10 9 9 8 7 8 8 9 10 10 10 11 9 8 7 9 8 7 5 4 5 4 5 5 6 5 3 3 4 13 10 7 8 8 12 13 11 11 10 10 10 9 10 12 12 11 12 12 10 9 8 7 7 7 7 7 6 4 5
21 23 22 23 24 23 19 15 17 19 16 13 16 18 15 17 18 17 18 16 17 16 14 13 11 11 9 9 9 8 7 6 6 8 9 8 9 10 10 8 6 8 8 7 6 5 5 5 5 4 5 4 1 2 2 12 13 10 10 10 11 12 12 11 10 11 10 10 11 12 11 10 10 9 9 9 10 8 7 7 6 7 7 5 4
22 22 20 22 22 20 17 12 12 18 17 14 17 18 15 15 16 18 19 17 19 17 14 13 12 11 10 9 8 6 5 6 5 7 8 7 8 8 8 7 5 7 7 6 6 5 5 5 4 2 1 1 2 3 4 12 13 10 10 11 12 13 13 12 11 11 11 11 11 11 11 10 9 7 7 8 10 10 9 8 6 7 8 6 5
19 19 19 19 17 16 16 13 13 17 16 14 16 19 18 17 18 20 20 18 18 16 13 12 12 12 11 9 7 6 6 6 6 6 7 6 7 6 6 6 4 5 6 6 5 4 4 5 5 3 4 4 5 4 5 10 10 8 10 11 12 12 12 13 12 10 11 12 12 12 12 10 9 7 6 6 8 10 10 10 9 8 8 7 5
21 22 22 19 16 16 17 14 16 18 16 16 19 21 21 20 19 21 20 17 16 15 13 11 10 10 10 9 7 7 7 8 7 6 7 7 7 6 5 4 3 3 3 5 4 3 3 3 4 5 6 6 7 5 5 11 11 9 10 10 11 11 12 13 11 9 10 10 12 14 13 9 8 9 7 7 8 8 8 9 8 8 8 8 6
24 25 23 20 18 18 18 15 17 19 17 19 21 21 21 21 21 21 19 16 15 14 13 11 9 8 8 9 9 9 9 8 7 6 7 7 7 6 4 3 3 3 3 4 4 3 3 5 7 7 7 9 10 8 8 13 13 11 11 11 12 12 12 12 10 10 10 10 11 14 11 5 7 11 9 8 9 8 7 6 6 6 7 8 8
27 26 22 21 21 19 19 19 20 21 20 21 21 19 20 20 20 19 18 17 14 11 11 10 8 7 8 9 9 9 9 9 8 7 7 7 8 6 5 4 4 4 5 6 6 5 5 8 8 7 11 14 13 11 12 14 14 13 13 12 12 10 9 9 8 7 8 10 13 13 8 4 7 11 11 10 10 9 8 7 6 6 6 6 7
26 26 25 23 24 22 21 21 22 22 22 22 21 20 21 20 19 19 18 16 13 11 10 9 8 8 9 8 7 8 8 8 8 8 8 8 8 7 6 6 5 5 6 7 6 6 7 8 8 8 12 16 16 15 14 14 14 14 14 13 12 10 8 8 7 6 7 11 13 10 7 6 7 9 10 9 9 9 9 8 7 6 6 6 6
23 24 25 25 25 24 21 21 21 21 20 20 20 21 22 21 18 17 17 15 14 12 11 11 10 9 9 7 6 7 7 7 8 9 9 9 9 8 8 7 6 6 6 6 6 7 7 8 10 10 11 15 18 17 14 13 14 15 14 14 12 11 9 7 6 5 6 9 11 6 5 6 6 7 8 8 8 7 8 8 7 6 6 6 5
23 24 26 26 25 23 22 21 20 19 18 18 20 21 20 18 16 15 15 14 13 13 12 11 10 10 9 7 5 5 6 7 8 8 9 11 11 9 8 7 6 7 7 7 7 8 9 10 12 12 12 14 15 15 14 14 15 15 13 12 11 10 8 6 4 5 6 8 8 5 3 5 5 5 5 6 6 7 8 7 6 6 6 5 3
26 28 28 27 25 24 23 22 20 19 20 20 21 19 17 16 15 15 15 15 13 12 11 10 10 9 8 6 5 5 6 7 8 9 10 10 10 8 8 7 6 8 8 8 8 9 11 12 12 12 13 14 13 13 14 14 15 14 12 12 10 9 8 6 6 7 8 7 6 5 4 6 7 6 5 6 6 6 7 7 7 7 6 4 1
29 30 29 28 27 26 25 22 20 20 21 21 21 19 18 16 16 16 16 15 14 13 12 12 12 10 8 7 6 6 6 7 8 8 7 8 8 7 7 7 7 9 8 8 9 9 10 11 11 12 13 14 15 13 13 15 15 13 11 11 10 9 7 7 8 8 8 7 7 7 7 8 9 7 6 7 7 6 7 8 8 8 6 4 3
29 31 30 29 28 27 26 22 20 21 20 20 20 20 19 18 17 16 13 13 14 15 15 13 12 11 9 8 7 7 8 8 7 7 6 6 8 7 8 8 8 10 9 8 10 10 11 12 12 13 13 14 15 15 15 13 11 11 11 9 8 7 6 7 7 7 8 9 7 8 9 9 10 9 7 8 7 7 9 9 8 8 7 5 4
29 30 30 30 29 27 25 23 21 21 19 19 19 19 18 16 15 14 14 16 17 17 15 13 13 13 12 9 7 6 7 8 8 7 7 7 7 7 9 9 9 10 10 9 10 10 12 13 13 13 14 15 14 16 16 11 10 13 11 6 3 3 4 5 5 5 7 8 8 9 9 10 12 10 8 8 7 6 8 7 7 8 8 7 6
28 30 30 30 29 26 26 24 22 20 19 19 18 19 18 17 19 20 22 23 20 18 15 14 15 14 13 11 8 5 5 7 7 7 8 7 7 7 8 9 9 9 9 9 11 10 11 13 13 12 13 15 13 14 14 11 13 14 7 3 2 3 2 0 3 4 3 5 8 10 12 12 13 11 9 9 8 7 7 7 9 11 11 10 7
28 29 30 30 28 27 26 25 23 21 20 20 20 20 20 21 23 23 23 22 20 17 16 16 15 15 14 12 10 9 8 8 7 7 7 7 7 7 8 8 8 9 9 10 11 11 11 12 12 11 11 14 13 13 13 11 13 12 7 5 3 2 1 4 4 5 6 9 10 11 15 15 12 12 12 12 11 10 11 13 13 14 12 10 7
27 28 29 30 29 27 26 24 23 21 21 22 21 21 21 21 21 20 20 21 18 15 15 16 16 16 14 12 11 10 10 11 11 10 10 9 8 7 7 7 7 8 9 11 12 11 12 12 11 11 11 12 12 12 13 13 14 11 8 7 2 2 8 7 4 5 11 15 16 16 18 16 13 13 13 13 13 13 15 16 16 14 12 9 8
25 26 27 28 29 27 25 24 23 22 22 21 21 20 19 18 17 18 19 20 18 16 16 17 17 16 14 11 11 10 10 10 10 11 12 10 9 7 5 5 6 7 8 11 12 10 11 11 9 10 10 12 12 12 14 14 14 11 8 6 3 7 15 11 5 4 6 9 15 20 19 16 15 14 13 12 13 14 16 17 15 13 10 8 8
25 25 26 28 29 28 26 25 24 22 21 21 20 19 18 18 17 17 18 18 20 20 18 18 17 14 11 10 12 12 10 8 8 9 10 10 8 6 4 3 3 6 8 10 10 9 11 10 9 8 9 11 12 12 14 13 13 12 9 8 7 10 16 12 9 9 5 3 7 13 16 15 14 14 13 11 12 16 17 15 14 12 9 8 8
26 26 27 28 28 27 26 26 25 24 23 22 21 20 19 17 15 17 19 19 18 17 16 16 14 12 12 13 15 14 11 8 7 8 9 9 9 8 8 6 2 6 9 9 8 8 11 11 10 10 8 9 10 10 11 12 12 12 11 11 11 12 13 11 12 12 9 5 3 4 10 13 11 12 13 12 12 16 17 14 12 10 8 8 8
27 27 27 27 27 27 27 27 26 25 24 22 22 21 18 15 17 20 21 19 16 15 15 15 13 13 14 14 14 13 11 9 8 9 10 10 9 8 9 9 7 7 10 9 8 8 10 12 12 11 9 9 10 8 9 11 11 12 14 16 15 14 12 9 10 11 11 9 5 4 9 11 9 10 13 15 16 16 15 12 9 9 9 10 10
28 27 27 27 28 29 28 28 26 24 22 21 22 21 17 18 21 22 20 19 17 16 15 14 12 11 13 13 12 12 11 9 8 8 9 10 9 7 7 9 10 11 11 10 8 8 10 12 12 12 12 12 11 9 9 10 11 12 14 17 18 19 16 11 14 14 11 10 7 5 9 12 10 10 12 16 18 15 13 11 8 8 9 11 12
Wind_Direction
153 155 152 154 152 152 153 154 154 154 151 149 145 143 143 140 137 133 132 131 128 125 120 116 112 110 109 108 108 109 109 110 107 104 100 97 94 93 93 91 87 85 87 88 90 85 84 86 84 82 81 82 84 83 81 87 92 93 93 88 86 88 93 92 91 94 88 82 80 78 76 72 73 75 72 72 75 78 78 77 75 71 73 78 78
156 154 153 154 152 152 154 156 157 156 153 150 146 145 144 142 139 135 134 133 130 127 122 117 113 112 112 112 113 113 114 113 110 106 101 98 98 98 97 93 91 89 90 91 88 81 85 88 86 85 84 84 85 88 87 84 88 91 94 93 90 91 96 95 93 94 89 86 84 82 80 76 77 76 72 73 78 80 79 76 74 72 73 76 76
152 152 152 153 153 152 156 158 158 158 155 152 147 146 145 144 141 137 136 134 131 127 123 118 115 115 116 115 115 117 117 116 113 108 103 101 103 103 102 100 99 94 93 92 86 81 86 91 90 89 86 85 84 88 91 87 91 95 98 99 98 96 96 98 100 95 85 86 87 83 80 78 79 76 73 75 78 81 82 78 74 73 73 74 74
150 151 152 154 153 154 157 158 159 159 156 153 149 147 146 145 143 139 137 134 130 125 122 118 118 118 118 118 117 118 119 117 114 110 107 105 106 106 104 104 100 93 94 93 89 88 88 89 89 92 89 87 87 90 96 96 100 103 103 101 100 99 99 103 107 99 83 80 82 80 78 79 81 77 75 78 79 82 85 82 77 74 72 74 75
148 150 153 154 153 155 157 158 159 159 157 154 150 147 146 146 144 141 138 134 128 123 121 118 119 121 120 119 119 120 121 119 117 113 112 110 107 107 105 105 102 97 99 97 94 94 92 88 88 95 94 91 88 91 102 104 108 109 105 102 100 101 105 110 113 112 87 70 76 80 79 78 81 80 77 78 79 82 84 81 81 79 74 74 76
148 150 153 153 152 154 157 158 159 159 157 154 151 148 147 147 145 143 139 134 127 123 121 119 119 121 120 119 119 122 124 123 122 116 113 111 107 107 106 107 106 103 105 102 98 97 94 91 92 94 93 95 91 93 108 112 112 109 106 105 103 101 104 111 116 124 96 66 78 84 82 78 79 83 80 79 78 81 83 82 85 83 76 75 77
147 149 152 151 151 154 158 159 159 159 157 155 152 149 148 147 146 144 141 135 128 126 124 123 122 121 120 118 118 121 125 125 125 120 115 112 108 108 107 106 105 105 108 106 103 100 96 95 95 92 91 97 94 99 112 117 115 110 109 107 104 102 98 102 105 111 80 78 91 88 85 84 83 85 83 81 80 81 83 84 86 83 79 78 79
144 147 151 152 153 156 160 160 160 159 157 156 153 151 150 149 148 146 144 137 131 129 128 127 125 124 120 118 117 120 125 125 127 125 121 116 112 110 108 108 108 109 109 108 106 104 100 99 99 94 93 97 96 104 113 118 118 114 112 106 102 97 91 87 68 61 89 105 104 92 87 88 86 86 85 82 83 85 84 85 85 83 82 82 82
141 147 153 154 156 158 162 162 162 161 159 158 155 154 153 151 149 148 146 141 135 133 132 130 129 126 121 119 117 119 125 126 127 128 125 120 116 115 115 117 117 116 116 114 110 111 112 104 98 98 98 97 97 104 114 120 119 114 109 103 93 86 79 65 63 86 111 116 106 92 88 91 88 86 85 81 86 89 88 87 86 84 84 84 85
143 150 155 156 158 161 163 163 163 163 161 159 157 157 155 154 151 150 150 145 140 138 136 134 132 128 123 121 120 120 123 123 123 125 127 124 122 123 125 126 122 121 120 118 115 118 120 107 100 101 99 91 94 104 115 121 117 112 103 97 86 79 70 65 84 106 116 114 100 90 87 91 91 87 82 81 89 91 87 86 87 88 87 86 86
146 152 156 157 159 162 164 164 164 164 163 162 160 159 158 156 154 153 153 148 144 142 140 138 134 129 125 124 124 123 122 121 119 121 126 127 129 132 133 131 127 125 123 122 120 119 115 108 104 100 90 81 92 106 116 121 117 110 100 93 84 77 70 75 99 112 112 107 95 89 88 91 93 91 83 83 92 93 88 88 88 89 89 88 88
150 155 157 157 159 163 164 165 165 164 164 163 161 160 160 158 156 156 154 151 148 146 143 139 135 131 130 129 128 126 126 124 121 122 125 126 127 131 136 137 135 131 127 128 128 125 117 112 108 97 89 83 94 105 116 122 118 110 100 92 83 79 74 78 105 115 111 104 93 92 94 93 91 91 82 84 94 93 90 90 89 88 89 91 90
152 156 157 158 160 164 164 164 165 165 164 162 162 162 161 159 157 157 155 153 151 148 145 139 137 135 135 133 131 129 130 130 127 126 123 121 119 120 129 135 139 137 132 134 140 141 129 116 108 102 100 96 101 109 120 125 121 114 102 92 83 81 71 75 111 123 114 102 94 94 97 95 92 90 81 84 93 91 90 91 92 92 92 91 91
154 158 159 160 161 165 164 164 165 164 164 163 163 162 162 160 158 158 157 156 152 149 145 141 141 140 138 135 132 130 133 135 134 130 123 119 117 117 122 127 133 138 138 138 142 144 136 120 110 113 119 116 113 114 122 126 125 117 103 91 83 80 65 79 119 126 112 101 94 93 97 100 96 94 87 86 90 86 90 92 91 93 94 92 91
157 159 160 161 160 164 165 164 165 164 164 163 163 163 162 161 160 160 158 156 153 150 146 144 143 141 140 137 135 131 133 139 139 135 129 122 119 119 121 124 128 132 136 135 133 133 132 128 118 119 130 129 122 118 120 125 126 116 103 90 86 85 65 85 124 123 109 101 94 95 98 103 100 98 94 92 92 82 86 93 93 93 93 91 91
158 160 160 161 160 163 165 165 165 164 163 163 163 164 163 163 162 161 159 156 153 150 147 146 145 143 143 140 136 133 133 138 141 139 137 131 122 122 123 122 125 128 133 134 132 128 125 129 126 120 126 127 125 125 121 124 128 118 104 92 93 85 62 89 129 121 107 98 94 99 101 106 103 100 97 97 95 80 83 94 95 95 94 91 91
159 162 161 159 160 162 164 165 165 163 162 163 164 165 165 165 163 161 158 156 153 149 147 145 146 145 144 140 135 134 135 136 138 138 140 138 129 126 126 123 126 132 133 133 132 128 123 127 131 128 127 120 118 133 130 127 129 121 107 94 96 79 64 103 131 118 106 98 95 97 98 102 101 101 101 100 95 82 84 92 94 94 95 93 92
158 163 161 158 159 162 164 163 163 162 161 162 164 166 166 165 163 160 157 154 151 148 147 146 147 144 139 137 133 132 135 136 135 137 141 138 134 132 129 127 132 140 138 132 126 125 123 123 130 131 133 122 113 126 133 131 129 124 110 98 99 81 78 117 130 117 108 98 94 95 99 105 105 104 105 105 99 91 84 84 92 93 94 94 92
156 160 159 159 160 162 164 164 163 161 160 161 163 165 164 163 160 158 155 152 149 147 148 146 144 142 139 136 133 133 134 134 134 136 138 135 135 136 133 133 138 144 140 128 120 121 120 116 126 129 131 128 118 112 119 133 133 129 114 102 102 81 87 126 127 117 106 94 93 94 102 112 110 108 108 109 104 100 85 76 83 84 90 95 94
153 158 157 159 162 164 166 165 164 161 161 163 162 161 160 160 157 156 153 149 147 144 143 143 142 140 139 135 133 134 133 132 135 135 133 132 135 136 134 135 139 138 127 118 112 112 105 110 135 141 145 142 132 114 114 134 138 135 117 104 94 72 98 136 129 116 102 93 93 91 101 109 111 112 110 109 106 104 89 77 76 73 79 88 92
151 157 156 160 163 167 168 167 164 162 163 163 160 157 157 156 153 152 149 146 143 140 139 140 140 138 137 134 132 132 131 133 136 134 131 130 133 135 136 136 136 129 118 112 102 100 96 97 119 149 172 162 151 130 124 137 143 138 118 104 83 73 118 137 130 117 102 96 93 96 105 109 112 113 111 110 106 105 96 86 76 70 74 79 84
150 155 158 162 165 169 170 167 163 162 163 162 157 156 157 155 151 149 146 144 139 138 140 139 139 140 137 134 131 131 133 136 135 131 128 127 129 134 138 136 134 128 120 109 99 99 95 97 109 147 180 168 160 141 134 137 144 143 121 103 80 87 136 134 121 113 101 100 98 106 112 112 113 111 114 113 109 108 105 97 79 68 71 77 82
154 157 161 164 168 171 170 166 162 163 163 160 158 156 157 155 151 148 145 141 139 142 142 141 144 143 142 138 134 136 136 134 130 125 122 122 126 133 137 135 136 130 122 107 100 102 95 106 117 142 173 160 152 139 136 136 145 150 128 109 89 102 142 128 114 111 99 102 103 116 122 121 120 114 116 113 114 114 107 99 77 66 70 81 87
163 163 163 164 170 172 169 165 163 164 162 161 162 158 158 156 151 148 144 140 141 145 143 144 150 147 147 146 141 144 140 134 133 128 124 124 127 136 142 141 142 130 121 100 98 103 94 108 125 139 154 150 150 139 133 132 145 151 129 125 103 106 141 124 112 110 101 106 111 124 128 128 126 121 117 116 122 115 108 98 72 71 80 84 89
170 169 167 166 172 173 168 165 165 167 165 165 164 160 160 158 151 146 142 142 144 145 145 151 154 151 153 152 151 155 150 142 143 138 130 132 135 143 150 151 151 139 125 97 96 96 87 107 119 118 137 148 153 144 138 139 149 151 129 128 113 119 143 124 110 107 102 109 119 128 125 122 124 124 121 122 128 115 111 95 69 83 87 81 84
171 175 172 169 174 174 170 171 171 170 169 169 166 161 160 157 149 145 141 141 148 149 152 158 154 154 160 160 162 166 158 147 145 142 138 143 146 145 149 153 154 144 126 94 93 92 91 118 124 111 131 152 170 177 221 194 166 162 144 130 128 143 147 131 120 111 104 112 125 133 126 118 120 123 123 122 125 114 105 83 75 93 89 74 74
170 178 176 171 173 173 175 178 177 175 174 171 168 163 156 153 146 142 142 144 155 158 157 160 157 159 165 168 173 171 161 153 150 151 153 158 156 149 152 160 157 148 128 109 104 82 85 137 145 127 151 265 271 267 266 214 186 187 173 143 133 146 147 141 138 123 111 120 134 140 133 126 125 121 120 122 122 109 95 88 91 101 94 77 70
168 177 177 173 172 174 177 180 178 177 175 169 166 162 148 143 145 142 142 149 160 160 157 160 163 167 169 175 180 172 162 165 166 166 169 172 168 163 169 175 176 185 183 176 198 234 240 230 246 269 271 292 295 288 240 193 186 188 181 151 132 149 152 142 135 124 123 134 141 144 139 134 132 125 121 124 124 114 106 107 107 108 107 88 74
164 172 176 174 173 175 178 179 178 179 175 164 154 157 143 124 135 141 140 152 161 158 160 167 173 177 174 176 178 172 169 177 178 176 178 182 181 179 181 182 186 199 212 210 210 234 230 232 258 269 278 284 286 283 212 183 178 159 180 169 142 146 142 133 127 122 126 138 144 147 144 140 135 129 126 126 128 127 123 120 112 116 126 105 87
159 169 173 173 176 179 176 173 177 182 180 163 141 151 148 120 123 135 141 156 163 160 165 174 180 177 169 168 170 172 176 184 189 183 183 190 193 195 203 204 198 202 219 229 229 249 238 240 264 275 296 290 265 298 187 172 169 138 146 158 153 152 143 137 134 124 123 134 143 146 143 142 139 136 135 134 136 135 130 127 113 115 125 118 101
150 163 170 175 182 183 172 165 175 178 173 164 150 146 143 129 123 132 142 150 157 163 171 174 179 173 165 169 170 172 174 183 197 195 194 198 199 205 214 216 210 209 221 230 230 241 241 259 279 287 315 302 209 7 121 152 153 137 133 142 149 158 156 151 145 127 119 128 138 142 139 137 140 142 146 152 153 142 135 135 110 109 121 127 119
147 157 164 172 179 177 167 164 174 175 169 165 155 144 139 137 132 137 143 146 152 164 171 169 174 174 175 178 174 177 181 188 201 206 201 194 197 203 201 202 203 209 216 219 218 224 231 243 259 262 93 201 65 58 148 139 133 128 135 149 151 154 154 155 151 132 123 127 130 133 132 129 132 142 151 160 163 151 139 136 123 118 120 125 127
143 147 149 155 162 164 165 161 153 159 160 154 151 148 147 145 142 143 147 151 156 163 166 168 174 175 181 183 181 192 203 205 205 208 201 186 195 192 179 189 195 200 209 209 202 197 209 216 229 212 153 151 82 82 153 131 125 128 132 151 156 152 152 155 153 142 134 128 125 126 125 123 128 143 145 141 156 155 145 140 139 139 129 130 129
130 131 129 134 143 154 162 156 144 147 145 147 153 150 148 147 147 148 149 154 161 166 169 174 178 179 183 182 187 203 210 212 206 202 199 194 201 187 170 197 220 209 207 207 195 164 171 180 191 174 144 126 105 122 145 119 123 132 126 135 142 142 148 154 155 151 147 136 128 125 120 121 132 144 146 136 143 151 152 149 146 145 141 139 134
113 117 123 134 141 147 154 150 151 154 150 155 157 149 148 149 150 150 147 151 160 166 171 175 178 185 186 182 195 208 212 213 209 205 205 203 204 197 188 221 241 216 199 197 187 166 148 128 141 149 120 109 119 131 122 116 122 125 125 130 131 135 138 145 152 149 153 154 137 125 120 130 147 145 146 146 145 146 151 155 153 152 149 146 143
102 114 130 144 146 144 145 143 148 150 145 150 151 146 149 148 147 146 141 148 160 166 171 171 171 179 184 188 198 205 210 214 215 216 215 210 205 204 204 216 224 207 197 191 178 167 152 134 132 132 121 121 130 130 116 123 130 124 127 131 130 133 127 130 143 141 149 150 132 128 140 161 154 149 149 149 147 145 150 155 156 160 163 162 157
116 129 139 142 144 144 141 139 144 145 141 143 143 142 144 142 143 143 144 154 161 160 163 168 172 177 182 188 192 195 203 212 219 219 216 218 216 215 216 214 213 202 195 187 167 152 149 146 142 140 134 130 132 129 119 125 134 130 131 132 128 128 121 124 140 144 145 138 127 138 178 181 163 164 160 154 152 148 151 158 159 161 167 173 171
133 136 137 136 139 142 139 137 141 144 145 144 141 139 140 141 143 147 153 158 158 160 166 173 181 187 185 183 183 191 201 209 214 210 210 221 221 220 226 222 209 195 189 181 162 145 145 155 152 146 140 134 133 132 131 134 134 130 131 131 129 125 121 124 136 139 129 129 128 137 182 175 161 166 164 165 168 164 156 156 160 168 177 184 183
132 134 137 139 139 139 139 139 140 140 142 144 144 141 141 144 145 148 158 162 161 159 158 161 169 179 182 180 179 191 202 206 205 198 204 219 218 216 219 218 208 193 187 180 166 150 145 150 149 145 139 135 135 136 145 146 132 129 132 129 126 123 121 117 117 113 104 120 124 105 130 144 133 144 165 179 181 183 177 164 164 175 178 182 191
135 138 141 143 141 136 136 140 142 140 139 141 144 144 142 143 145 148 155 160 154 143 137 135 134 146 161 163 171 185 195 196 194 191 199 208 206 204 205 207 201 186 184 180 167 153 149 148 146 148 146 139 136 139 154 152 130 123 123 120 122 120 115 115 119 113 105 121 120 91 103 119 116 126 147 166 168 173 178 172 175 179 162 142 133
139 140 141 143 142 139 136 137 143 145 142 140 143 146 144 145 150 151 150 149 144 133 129 127 123 130 136 133 147 172 189 193 188 182 188 196 191 187 189 196 190 177 181 181 168 160 156 153 148 151 153 148 141 141 155 151 132 121 115 110 113 114 111 113 118 113 115 132 128 111 112 113 112 111 118 145 154 150 157 164 174 172 145 115 105
140 140 143 142 144 145 141 140 144 147 147 145 148 150 148 147 149 149 146 146 143 129 120 120 120 119 117 119 136 161 178 178 174 171 168 177 184 180 175 181 178 173 184 185 170 169 167 161 159 160 164 160 149 145 151 149 138 133 125 108 94 98 105 104 111 126 138 146 142 126 118 115 115 105 106 127 131 130 147 159 165 161 141 118 104
143 143 143 142 146 147 146 146 146 147 148 148 148 145 139 137 141 137 129 131 132 119 108 107 110 109 109 117 135 152 163 163 163 166 162 164 176 175 174 184 185 180 188 184 173 178 175 170 174 175 170 163 154 153 158 157 147 139 127 111 93 88 80 78 100 134 150 152 156 146 126 115 117 112 110 111 108 127 152 157 151 148 138 118 108
149 147 145 145 147 148 150 151 148 147 148 149 148 140 129 120 122 120 116 117 117 111 107 107 105 105 108 111 119 119 122 140 148 150 146 148 157 157 164 180 188 189 193 182 173 176 173 171 178 184 178 166 156 161 171 167 155 150 129 100 110 91 68 86 126 113 142 157 153 154 144 127 121 119 112 102 95 109 130 130 124 128 127 118 113
152 151 150 150 150 150 152 153 151 150 151 153 149 141 129 118 117 117 114 113 112 114 119 116 106 102 104 103 102 99 92 97 108 119 124 133 142 141 149 163 176 186 188 179 173 172 173 178 180 184 188 178 164 166 177 174 164 159 141 124 103 74 191 201 151 71 74 112 114 133 149 142 129 123 114 105 98 93 103 113 113 114 116 112 100
153 154 153 153 152 151 153 155 154 153 154 155 149 142 134 126 126 126 121 118 116 119 122 119 114 110 109 105 103 100 91 88 88 93 103 112 116 113 127 148 163 175 179 178 177 174 177 186 190 190 195 188 175 169 176 179 173 163 144 136 115 165 173 165 145 70 73 88 88 104 135 140 131 129 119 107 103 98 100 105 105 107 106 97 81
154 155 155 155 154 154 155 158 157 154 153 153 148 142 135 129 129 126 125 123 116 114 117 118 118 117 113 113 115 105 94 91 88 89 95 96 93 91 100 121 144 159 166 176 184 182 180 190 201 201 197 190 185 177 176 177 173 171 166 150 115 154 164 156 147 140 86 77 82 94 114 125 123 127 124 112 107 105 104 105 109 114 105 81 55
155 157 160 160 160 158 158 160 160 155 153 149 144 138 129 125 125 123 125 125 116 112 117 119 118 116 113 121 127 116 104 103 99 98 100 97 93 86 78 83 136 159 149 156 175 175 172 181 190 196 192 184 184 179 177 180 175 175 178 158 131 148 163 162 145 137 123 81 82 91 103 110 111 116 122 125 121 114 113 116 119 118 99 68 44
157 159 163 164 165 162 161 163 162 157 154 149 141 134 131 132 137 136 130 126 121 119 120 120 118 118 118 125 129 121 115 114 111 116 119 116 114 101 88 76 94 176 158 143 152 162 169 173 173 183 190 180 184 184 177 179 177 175 173 155 140 146 154 155 147 136 128 128 111 102 113 110 110 117 121 132 137 125 121 124 123 114 88 66 65
161 161 163 166 167 165 165 166 163 159 156 153 146 141 143 150 151 145 136 129 129 129 127 126 124 121 120 122 126 125 122 119 108 115 121 118 121 118 101 85 88 147 162 151 144 151 171 179 172 170 177 177 182 184 165 164 173 174 167 155 151 153 146 148 159 146 130 128 130 143 137 130 136 136 124 129 141 139 131 130 122 105 82 70 75
164 163 165 168 170 170 170 168 165 162 161 160 156 153 153 152 148 144 138 137 140 139 135 135 134 130 125 121 127 133 134 130 111 108 117 110 104 114 114 98 95 116 139 148 144 142 160 174 165 152 161 170 172 171 153 151 166 171 165 161 165 166 161 167 176 164 142 136 136 141 149 150 156 161 141 127 137 145 137 129 113 89 74 68 71
Height
772 771 772 772 775 777 780 781 783 784 786 787 788 790 790 791 792 793 795 796 797 798 799 800 802 803 805 806 807 808 809 809 810 811 812 813 814 815 816 817 818 818 819 820 821 822 823 824 825 826 826 827 827 828 828 828 829 829 829 829 830 830 830 830 830 831 832 833 833 833 833 833 833 833 833 833 833 833 833 832 832 831 830 830 830
770 772 773 774 775 776 780 780 783 784 786 788 788 790 791 792 793 794 795 796 798 799 800 801 803 804 806 807 808 809 810 810 811 812 813 814 815 817 817 818 819 820 821 822 823 823 824 825 826 827 828 828 828 829 829 829 830 830 830 830 831 831 831 831 832 833 833 834 834 834 834 833 834 834 835 835 835 835 834 834 833 832 832 832 832
769 773 773 775 776 776 779 781 783 785 787 788 789 791 792 793 794 795 796 798 799 800 802 803 804 805 807 808 809 810 811 812 812 813 814 815 816 817 818 820 820 821 822 823 824 824 825 826 827 828 829 830 830 830 830 830 830 831 831 831 832 832 833 832 833 834 834 835 835 835 834 834 835 835 836 836 836 836 836 835 835 834 834 833 833
769 772 774 776 776 777 779 781 783 785 788 789 790 791 793 794 795 796 797 799 800 801 803 804 806 806 808 809 810 811 812 813 813 814 815 816 817 818 819 820 821 822 823 824 825 825 826 827 828 829 830 831 831 831 831 831 831 832 832 833 833 834 834 834 835 836 836 836 836 836 835 835 836 837 837 838 838 838 837 837 836 836 835 835 835
769 771 774 776 777 778 780 782 784 786 788 790 791 792 794 795 796 798 798 800 801 803 804 805 806 807 809 810 811 812 813 814 814 815 816 817 818 819 820 821 822 823 824 825 826 827 828 829 830 831 831 832 832 832 832 832 832 833 833 834 834 835 835 836 837 837 837 837 838 837 837 837 837 838 839 839 839 839 839 838 838 838 837 837 837
768 771 774 776 778 779 781 782 784 786 788 790 792 793 795 796 797 799 800 801 802 804 805 806 807 808 810 811 812 813 814 815 815 816 817 818 819 820 821 822 823 824 825 826 827 828 829 830 831 832 832 833 833 833 833 833 834 834 835 835 835 836 836 837 838 838 838 839 840 839 839 838 838 839 840 840 840 840 840 840 839 839 839 838 838
768 771 774 776 779 780 782 783 785 787 789 791 793 794 796 797 798 799 801 802 803 804 805 807 808 809 810 812 812 813 815 815 817 817 818 819 820 821 822 823 824 825 826 827 828 829 830 831 832 833 834 834 834 833 833 834 834 835 836 836 836 837 837 838 839 839 839 840 841 840 840 839 840 840 841 841 841 841 841 841 841 841 840 840 840
770 772 774 777 779 780 782 783 785 787 789 791 793 795 796 798 799 800 801 802 804 805 806 807 808 810 811 812 813 814 815 816 818 818 819 820 821 822 823 824 825 826 827 828 829 830 831 832 833 834 835 835 835 834 834 834 835 836 837 837 837 837 838 839 839 840 840 841 842 841 841 840 841 841 842 842 842 843 842 842 842 842 842 841 841
773 773 775 777 778 780 782 783 785 787 789 791 793 795 797 798 799 801 802 803 805 806 807 808 809 810 811 813 814 815 815 817 818 819 820 821 822 822 823 824 825 827 828 829 830 831 832 833 834 835 836 836 836 834 834 835 836 837 837 838 838 838 839 840 840 839 839 841 842 841 841 841 842 842 843 843 843 844 844 843 843 843 843 843 842
773 774 776 777 779 781 782 783 785 787 789 791 793 795 796 798 800 801 803 804 805 807 808 809 810 811 812 813 814 815 816 817 819 820 821 822 822 823 824 825 826 828 828 830 830 832 832 833 835 835 837 837 836 835 835 836 837 838 838 839 838 839 840 841 841 840 840 841 842 842 842 842 843 843 844 844 844 845 845 845 844 844 844 844 843
774 776 778 779 781 782 782 784 785 786 788 790 793 794 796 798 800 801 803 804 806 807 808 810 811 812 813 814 815 816 817 818 819 821 822 823 823 824 825 826 827 828 829 830 831 832 833 834 835 836 837 837 837 837 837 837 838 839 839 839 839 840 841 842 842 842 842 841 842 842 843 843 844 845 845 845 846 846 846 846 846 846 845 845 845
775 777 779 781 782 783 783 784 785 787 788 790 792 794 796 798 800 801 803 805 806 807 809 810 811 813 813 815 816 817 818 818 820 821 822 823 824 825 825 827 828 829 830 831 832 832 833 834 835 836 838 838 838 838 838 838 839 839 840 840 840 841 842 843 843 843 842 841 842 843 844 844 845 846 846 846 847 847 847 847 847 847 847 846 846
775 777 779 781 782 783 783 785 786 788 789 791 793 794 796 798 800 801 803 805 806 808 809 811 812 813 814 815 816 817 818 819 820 822 823 824 824 825 826 828 829 830 831 832 833 833 834 835 836 837 838 839 839 839 839 839 839 840 840 841 841 841 842 844 844 843 842 842 843 843 844 845 846 847 847 847 848 848 848 848 848 848 848 848 847
776 778 779 781 781 783 783 785 787 788 790 791 793 794 796 798 800 802 804 805 807 808 810 811 812 814 815 816 817 818 819 820 821 822 823 824 825 826 827 828 829 831 832 833 833 833 834 835 836 837 838 839 839 839 839 840 840 840 841 841 841 842 843 844 844 844 843 842 843 844 845 846 847 848 848 849 849 849 849 849 849 849 849 849 849
777 778 780 781 782 784 784 786 786 788 790 791 794 795 797 798 800 802 804 806 807 809 810 812 813 815 816 817 818 819 820 821 822 823 824 825 826 827 828 829 830 832 833 833 834 834 835 836 837 837 838 839 839 840 840 841 841 841 842 842 842 843 844 844 845 845 844 843 844 845 845 847 848 848 849 850 850 850 850 850 850 850 850 850 850
779 779 781 782 783 785 786 787 788 789 790 792 794 795 797 798 801 802 804 806 808 810 811 813 814 816 817 818 819 819 820 821 823 823 824 825 827 828 828 830 831 833 833 834 834 835 836 836 837 838 839 839 840 841 841 841 841 842 843 843 843 843 845 844 845 846 845 845 846 846 847 848 848 849 850 851 851 851 852 851 851 851 852 852 851
780 781 781 783 784 785 786 788 789 790 792 793 795 796 797 799 801 803 805 807 809 811 812 814 815 817 818 819 820 820 821 822 823 824 825 826 827 829 829 830 832 833 834 835 835 836 836 837 838 838 839 840 840 841 842 842 842 843 844 844 844 844 845 844 845 846 846 846 847 847 848 849 849 850 851 852 852 852 853 853 852 852 852 853 853
781 782 783 784 785 786 788 789 790 792 793 794 796 797 798 800 802 804 806 808 810 812 813 815 816 817 819 819 820 821 822 823 823 824 825 826 828 829 830 831 833 834 835 835 836 836 837 838 838 839 839 840 841 841 842 842 843 844 844 844 845 846 846 845 846 846 846 847 848 848 849 850 850 851 852 853 853 853 854 854 854 853 853 854 854
783 783 784 785 786 788 788 790 791 792 794 795 797 799 800 802 803 805 807 809 811 813 814 816 817 818 819 820 821 821 822 823 824 825 826 826 828 830 831 832 833 834 835 836 837 837 838 839 839 840 840 841 841 842 842 842 843 844 845 845 845 846 846 846 846 846 847 848 848 849 850 850 851 852 853 853 854 854 855 855 855 855 855 855 855
784 784 784 786 787 788 789 790 792 793 795 796 798 800 802 803 805 807 809 811 812 814 815 816 818 819 820 821 822 823 823 824 825 826 826 827 828 831 832 833 834 835 836 836 837 838 839 839 840 840 841 841 842 842 842 843 843 844 845 846 846 846 846 846 847 847 847 848 849 850 851 851 852 852 853 854 855 855 855 856 856 856 856 856 856
784 785 785 787 787 789 789 791 792 794 796 797 800 801 804 805 807 809 811 812 813 815 816 818 819 821 822 822 823 824 825 826 827 826 826 827 829 831 833 834 835 836 836 837 838 839 839 840 840 841 841 842 842 842 842 843 844 845 846 846 847 847 846 847 847 847 848 849 850 850 852 852 852 853 854 855 856 856 856 857 857 857 857 857 857
784 785 786 787 788 789 790 792 794 796 797 799 801 802 805 806 808 811 812 814 815 817 817 819 821 822 823 823 824 825 826 828 828 828 827 828 830 832 834 835 836 837 837 838 838 839 840 840 841 841 841 842 842 842 843 843 844 845 846 847 847 847 847 847 848 848 849 850 851 851 852 853 853 854 855 856 857 857 857 858 858 858 858 857 857
784 785 786 787 788 789 790 793 795 797 798 800 801 803 805 807 809 811 813 815 816 818 819 820 822 822 823 823 825 826 827 829 829 829 828 829 831 833 834 835 836 837 838 838 839 839 840 841 841 841 841 842 843 843 844 844 845 846 847 847 848 848 848 848 849 849 850 851 852 852 853 854 854 855 856 856 857 858 858 858 858 858 858 858 858
784 784 786 788 788 789 791 794 795 797 799 800 802 804 806 808 810 812 814 816 817 819 820 821 822 823 824 824 825 827 828 828 829 829 828 830 832 834 835 836 837 838 838 839 839 840 840 841 841 841 841 842 843 844 845 845 846 847 848 848 849 849 849 849 849 850 851 851 852 853 854 854 855 856 857 857 858 858 858 859 859 859 859 859 859
783 784 786 788 789 790 793 795 796 798 800 801 803 805 807 809 811 813 815 817 818 820 821 822 823 824 825 826 827 827 828 828 828 828 829 831 833 834 835 837 838 838 839 839 840 840 841 841 841 842 842 843 844 845 846 846 847 848 848 849 850 850 849 849 850 850 851 852 853 853 854 855 856 856 857 858 858 858 859 859 860 860 860 860 859
783 784 786 788 789 791 793 795 797 799 800 802 804 807 809 811 812 814 817 818 820 821 821 823 824 826 826 827 828 828 828 828 828 828 830 832 833 835 836 837 838 839 839 839 840 840 841 842 842 842 843 844 844 846 846 847 847 849 849 849 850 850 850 850 850 851 851 852 853 854 854 855 856 857 857 858 858 858 859 860 860 860 860 860 860
782 783 785 788 789 791 794 795 797 799 801 803 805 807 810 813 815 816 818 819 820 821 822 824 825 826 827 828 829 829 829 828 829 829 831 832 834 835 836 837 838 839 839 840 841 841 841 842 843 843 843 843 844 846 846 847 848 849 850 849 849 849 850 850 850 851 852 852 853 854 855 856 857 857 858 858 858 859 859 860 860 861 861 860 860
782 784 785 788 790 792 794 796 798 799 801 803 806 809 813 816 817 819 820 820 821 822 824 825 827 827 828 828 829 829 828 828 829 830 832 833 835 836 836 837 838 839 839 840 841 841 842 842 843 843 843 843 844 845 846 847 848 849 849 849 849 849 849 850 850 851 852 852 853 854 855 856 857 858 859 859 859 859 860 860 861 861 861 861 861
782 784 785 787 790 791 793 796 798 801 803 805 809 812 815 817 819 822 822 823 823 824 825 826 827 828 828 828 829 829 828 829 830 831 832 833 835 836 836 837 838 839 840 841 841 842 842 842 843 843 843 843 843 844 846 846 847 848 849 849 849 849 849 850 850 851 852 852 853 854 855 856 857 858 859 859 860 860 860 860 861 861 861 861 861
783 784 785 787 788 790 793 796 799 802 805 808 810 812 814 816 820 823 823 824 824 825 826 826 827 828 828 828 829 829 829 829 830 831 833 834 835 835 836 837 838 839 840 841 842 842 842 843 843 843 843 843 842 844 846 846 846 848 849 850 850 850 850 850 851 851 852 853 853 854 856 857 858 859 859 859 860 860 860 861 861 862 862 861 862
783 784 785 786 788 791 794 797 800 802 805 806 808 809 812 815 819 822 823 824 824 825 826 826 826 827 827 828 828 828 829 830 831 831 833 834 834 835 836 837 838 839 840 841 842 842 843 843 843 843 843 843 843 844 848 848 847 848 849 850 850 850 850 850 851 851 852 853 854 855 856 857 858 859 859 859 859 860 861 861 861 861 862 861 861
782 783 786 788 789 792 795 797 800 802 803 804 805 808 811 814 817 821 823 823 824 824 825 826 826 827 827 827 828 827 828 829 830 831 832 833 834 835 836 837 838 839 840 841 841 842 842 843 844 844 843 844 844 846 851 850 847 848 849 850 851 851 851 850 851 852 853 854 855 856 857 858 859 859 859 859 859 860 861 861 862 862 862 862 862
783 785 788 790 792 793 795 797 799 801 803 804 805 806 809 812 815 818 821 822 822 823 824 826 826 826 827 827 828 827 828 829 830 831 832 833 833 834 835 836 837 838 839 840 841 841 842 843 844 844 843 844 844 848 852 849 847 849 849 850 851 851 851 851 852 852 853 854 855 857 859 859 858 858 859 860 861 861 861 861 862 862 862 862 862
786 788 791 793 793 794 795 797 799 802 803 805 805 805 808 811 814 817 819 820 820 821 823 825 825 825 826 827 827 828 828 829 830 831 832 832 833 834 835 836 837 838 839 840 840 841 842 842 844 844 844 844 844 850 852 848 848 849 849 850 851 852 852 852 853 853 853 855 856 858 860 859 857 857 859 860 861 861 861 862 862 862 862 863 863
789 792 794 794 794 793 794 796 798 800 801 803 804 805 808 810 813 816 818 819 819 820 822 823 823 824 825 826 827 828 828 830 830 831 832 832 833 834 835 836 836 837 838 839 840 841 841 842 843 844 844 844 845 849 851 849 849 850 850 851 851 852 853 853 853 854 854 855 857 860 860 857 856 858 860 861 861 861 862 862 863 863 863 863 863
792 794 794 792 793 793 794 795 797 799 800 802 803 805 808 810 813 816 817 819 819 820 821 822 823 823 825 826 827 828 828 830 831 831 832 832 833 834 835 836 836 837 837 838 840 841 841 842 843 844 844 844 846 848 850 850 851 851 851 851 851 852 853 853 854 854 855 856 859 861 858 856 858 860 861 861 861 861 862 862 862 863 863 863 863
790 791 791 791 793 794 795 796 797 799 801 802 804 806 809 811 814 816 818 819 820 820 820 821 822 823 824 825 826 827 828 829 830 831 832 832 832 834 835 836 836 836 837 839 840 841 841 842 843 844 844 845 846 847 849 852 852 851 852 852 852 853 853 854 854 855 856 857 860 860 857 857 860 861 861 861 861 861 861 861 862 862 863 863 863
790 790 791 793 794 795 797 798 799 801 802 804 806 808 810 813 814 816 818 819 820 821 821 822 822 823 824 825 826 827 828 828 829 831 832 832 832 833 834 835 836 836 837 839 840 841 841 842 842 844 845 846 847 847 849 853 853 852 853 853 853 853 854 854 855 855 856 857 860 860 858 859 860 860 861 861 861 861 861 861 862 862 863 863 863
792 793 794 795 796 798 799 800 801 802 803 805 807 809 811 813 815 816 818 819 820 821 822 822 823 823 824 825 826 826 827 828 829 831 831 832 832 833 834 834 835 835 836 838 840 841 841 842 842 843 845 846 847 847 851 854 853 853 853 853 854 854 855 855 855 856 857 858 859 859 859 860 860 860 861 861 861 861 861 861 862 862 863 863 863
792 793 794 795 797 798 799 800 801 802 804 806 808 810 812 813 815 816 818 819 820 821 822 823 823 824 824 825 826 827 827 828 829 830 831 831 832 833 834 834 835 835 836 837 839 841 841 841 842 843 844 846 847 849 852 853 852 853 854 854 855 856 856 856 856 856 857 858 858 859 860 860 861 861 861 860 861 861 861 861 862 862 863 863 864
791 792 793 795 796 797 798 800 801 803 804 806 808 809 811 812 814 815 816 818 819 820 822 823 823 824 825 825 826 826 827 828 829 830 831 831 831 832 833 834 835 835 836 837 839 841 841 841 842 843 844 846 848 850 852 852 852 854 855 855 856 856 857 857 857 857 858 858 859 859 860 861 861 861 861 860 860 861 861 861 862 862 863 864 864
789 791 792 793 794 795 796 798 801 803 804 806 807 808 810 811 812 814 816 817 819 820 821 822 823 824 825 825 826 826 827 828 829 830 831 831 831 832 833 834 834 836 837 838 839 840 841 842 842 843 844 845 847 849 851 851 852 853 854 856 857 857 857 857 857 858 858 859 860 860 861 861 862 862 861 861 861 862 862 862 862 863 863 864 864
787 789 790 791 793 794 796 798 799 801 803 805 806 807 809 810 812 814 815 817 819 820 821 822 823 824 825 826 826 826 827 829 830 830 830 830 830 832 833 834 835 836 837 838 839 839 840 841 842 842 844 845 847 849 850 851 852 853 854 856 858 858 859 858 858 858 859 860 861 861 861 862 862 863 862 862 862 862 862 863 863 863 864 864 864
785 787 789 790 792 794 795 797 798 800 802 804 806 807 809 810 811 813 815 816 818 819 820 822 823 824 825 826 826 826 828 829 829 830 830 830 830 831 833 834 834 835 837 838 839 839 840 841 841 842 843 845 847 849 850 851 852 853 854 857 858 859 861 859 858 859 860 861 862 862 862 863 863 864 864 864 864 863 863 863 863 864 864 864 864
783 785 787 789 791 792 794 796 797 799 801 803 805 806 808 810 811 813 815 816 818 819 820 822 823 824 825 826 827 827 828 829 829 830 830 831 831 831 832 833 834 835 836 837 838 839 840 841 841 842 843 844 846 848 850 851 852 853 853 855 857 860 861 859 859 861 861 861 862 863 863 864 864 864 865 865 864 864 863 864 864 865 864 864 865
783 786 787 789 790 792 793 795 796 798 800 802 804 806 808 809 811 813 814 816 818 819 821 822 823 825 826 826 827 828 828 829 829 830 831 831 831 832 832 833 834 835 836 837 838 839 840 840 841 843 843 844 846 847 849 850 852 853 853 853 855 857 857 857 859 862 862 862 863 863 864 865 865 865 865 865 865 865 865 865 865 865 865 865 865
784 786 788 788 789 791 792 794 796 798 800 802 804 806 807 809 811 812 814 816 817 819 821 823 824 825 826 827 827 828 829 829 830 830 831 831 832 832 833 834 834 835 836 837 838 839 840 840 841 843 843 844 845 847 848 849 851 852 853 854 854 854 855 856 858 861 863 864 864 863 865 866 866 866 866 866 866 866 866 866 866 866 866 866 866
783 785 786 787 788 790 792 794 796 798 800 802 804 805 806 808 810 812 815 816 818 820 822 823 824 825 826 827 828 829 830 830 830 831 831 832 832 833 833 834 835 835 836 837 838 839 840 841 841 842 843 844 845 846 847 848 850 851 853 854 855 855 855 856 857 859 861 865 865 865 865 866 866 866 866 866 866 866 866 867 867 867 867 867 867
783 784 785 787 788 790 792 794 796 798 799 801 803 804 806 808 810 812 815 817 819 820 822 823 824 825 825 827 828 829 830 831 831 831 831 832 833 833 834 834 834 835 836 837 838 839 840 841 841 841 842 843 844 846 847 848 849 850 852 853 855 855 856 857 858 858 859 863 866 865 865 866 866 867 867 867 867 868 867 868 868 868 868 868 868
782 784 786 787 789 790 792 794 796 798 800 801 802 803 806 807 809 812 814 817 819 820 822 823 824 825 826 827 828 829 830 831 831 831 832 832 833 834 834 835 834 835 837 838 838 839 840 841 841 842 842 843 844 845 847 848 848 850 851 852 853 854 855 856 858 858 859 861 863 864 865 866 866 867 868 868 868 868 868 869 869 869 869 869 869
781 784 785 787 788 790 792 794 797 798 799 801 802 803 806 807 809 811 814 816 818 820 822 823 824 825 826 826 827 828 829 830 831 831 832 832 833 834 834 835 835 835 837 838 838 839 840 841 841 842 843 844 844 845 846 847 848 849 850 851 852 853 853 855 856 857 858 859 861 864 865 865 867 867 868 869 869 869 869 869 869 869 870 870 869